Location: Recife
(8.0585°S, 34.8848°W)
Time: 12:31:27
(UTC-03:00)

Tiros 1 - Pass Details

Date: 18 April 2026
Orbit: 618 x 648 km, 48.4° (Epoch: 11 May)

Event Time Altitude Azimuth Distance (km) Brightness Sun altitude
Rises 06:30:21 0° 242° (WSW) 2,892 9.9 15.8°
Reaches altitude 10° 06:33:06 10° 258° (WSW) 1,979 9.1 16.4°
Maximum altitude 06:36:34 21° 308° (NW) 1,372 8.6 17.3°
Drops below altitude 10° 06:40:01 10° 358° (N) 1,966 9.9 18.1°
Sets 06:42:45 0° 14° (NNE) 2,867 10.9 18.7°
